Wind_Speed
29 28 27 27 30 34 38 37 37 38 41 38 42 43 42 40 38 37 36 34 33 32 30 29 29 29 29 29 29 27 26 25 25 24 23 23 24 25 26 27 28 29 31 32
28 27 27 30 31 33 35 36 37 38 40 41 45 46 45 44 42 40 39 37 36 34 32 31 31 32 32 32 33 32 30 30 29 28 27 27 27 28 29 30 31 32 34 35
26 27 29 30 32 33 35 35 35 37 40 42 45 46 46 46 44 43 42 40 38 36 34 33 33 34 35 35 35 35 35 35 33 31 31 31 32 33 32 33 34 36 37 38
23 24 26 29 31 33 34 34 35 36 39 40 44 44 41 46 43 41 41 40 39 38 36 34 34 35 36 37 37 38 38 37 36 34 34 34 35 35 36 38 39 40 41 42
21 23 25 27 29 32 34 35 36 37 39 41 44 44 39 45 43 39 38 38 39 38 38 36 35 37 39 39 40 40 40 40 38 37 37 38 38 39 40 42 44 46 46 47
23 23 24 25 27 29 31 33 35 37 39 42 41 42 39 38 41 37 37 37 37 38 38 38 38 39 40 41 41 42 42 41 40 40 40 40 41 42 45 47 49 50 50 51
24 24 24 25 27 28 29 30 32 34 36 37 35 40 38 36 38 36 35 35 35 36 36 37 37 37 39 40 41 41 41 40 41 41 42 42 42 44 47 48 49 51 53 54
27 27 26 26 26 28 29 30 31 31 28 26 29 34 32 36 36 34 33 32 32 33 33 33 33 34 35 37 38 39 39 40 40 41 41 42 44 46 46 47 50 51 53 54
30 28 27 26 27 28 28 29 30 32 33 33 33 32 33 35 32 31 30 30 30 31 31 30 30 31 32 33 34 35 37 38 39 40 41 42 43 45 47 50 52 53 55 53
32 30 28 27 28 29 28 28 30 32 33 33 32 29 27 27 26 27 28 28 28 28 28 28 28 29 30 32 33 35 36 38 39 40 42 43 45 47 50 51 53 53 52 52
35 33 31 29 29 28 29 30 30 30 30 29 29 26 25 28 27 27 27 27 28 28 27 27 28 29 30 31 33 35 36 37 39 41 43 45 46 49 50 51 52 51 51 52
38 36 34 32 31 30 31 31 31 32 31 31 31 28 28 32 30 29 28 29 29 29 29 29 30 31 32 33 35 37 38 39 41 43 45 47 49 51 53 52 51 51 52 52
41 39 37 34 32 34 36 36 35 36 35 34 33 29 30 33 31 30 31 31 31 31 32 32 34 35 36 37 38 40 41 42 44 46 48 51 52 53 52 52 52 52 52 51
42 42 40 35 30 38 38 38 38 39 37 36 35 32 32 36 35 34 34 34 34 34 35 36 37 38 38 40 42 43 44 47 49 50 51 52 53 52 52 53 52 52 51 51
43 43 43 43 43 44 42 41 41 41 41 41 40 39 39 41 39 37 37 38 38 38 39 40 41 43 44 45 46 48 49 50 51 51 52 53 53 53 53 53 51 50 50 50
43 44 44 44 44 44 44 43 43 43 43 44 44 44 45 45 42 42 42 43 43 44 45 46 46 47 48 49 50 51 51 51 51 50 50 52 55 55 53 50 47 47 48 48
41 42 43 44 45 44 45 45 45 44 45 46 48 49 49 47 47 47 47 47 48 48 49 49 49 49 49 50 50 50 49 49 49 49 52 55 56 53 48 46 46 46 46 46
38 39 41 42 43 43 45 44 42 42 45 46 48 49 49 49 49 49 49 49 49 49 48 48 47 47 47 47 47 47 47 49 50 51 54 55 52 47 44 43 44 44 44 46
34 35 36 38 39 40 42 41 39 40 42 43 44 46 47 47 48 48 48 48 47 46 45 43 42 42 42 42 42 43 45 49 52 54 54 49 44 41 41 41 42 43 45 47
29 30 32 33 35 36 40 37 37 38 39 39 40 41 42 42 44 45 44 44 43 42 41 40 39 38 38 39 40 41 45 50 51 49 44 41 39 39 39 40 42 44 46 47
26 27 29 30 32 34 36 34 34 35 35 35 35 36 37 38 39 40 40 40 39 39 38 36 36 35 35 37 40 43 46 47 43 39 37 37 37 38 39 41 43 45 46 46
23 24 26 27 29 32 33 32 33 32 32 31 32 32 33 33 33 34 34 34 34 33 32 31 31 32 34 37 39 40 40 37 35 34 34 35 36 38 40 42 43 44 44 43
21 22 24 26 28 30 30 30 30 29 28 28 28 28 28 28 27 27 27 27 26 26 26 27 28 29 32 34 33 32 30 29 30 31 33 35 37 40 41 42 43 43 42 39
20 21 23 24 26 27 28 28 27 26 25 25 24 24 24 23 22 21 21 21 21 22 23 24 25 27 27 25 23 24 25 26 28 30 33 36 38 40 41 42 42 40 37 34
19 20 21 22 23 24 24 23 22 21 20 19 17 17 17 17 17 16 16 16 17 19 21 21 19 16 15 16 19 21 23 25 29 32 35 37 39 41 41 40 38 35 30 26
16 15 15 15 16 17 16 15 15 14 13 11 11 10 10 10 11 11 13 14 13 13 11 9 9 11 13 15 18 20 24 27 30 33 35 38 39 40 38 36 32 27 23 21
Wind_Direction
240 241 242 243 241 238 239 240 240 241 250 253 253 255 259 262 264 267 270 271 272 272 273 273 270 270 271 273 274 277 279 279 279 279 282 284 287 290 291 293 293 293 294 294
240 241 239 238 239 240 242 242 243 245 250 251 253 255 258 261 264 266 269 271 272 272 272 269 268 268 268 269 270 273 276 276 276 278 282 286 288 290 291 292 292 292 292 292
243 242 241 241 241 241 243 244 244 245 249 252 254 257 260 261 263 266 269 271 271 271 270 268 267 266 267 268 270 272 275 277 278 280 284 287 290 292 291 293 293 294 293 292
247 248 246 246 246 246 247 247 246 246 248 252 255 256 259 265 265 266 269 271 272 272 271 269 267 267 268 269 270 273 276 279 281 285 288 290 292 293 293 295 295 295 294 294
252 251 251 251 251 251 250 250 250 250 251 252 257 261 261 266 269 270 270 270 271 271 271 271 268 268 269 270 272 275 278 280 282 285 287 290 291 292 294 297 297 295 295 296
256 258 258 258 257 257 258 258 257 256 255 256 258 263 265 268 271 271 270 270 270 271 271 271 270 270 271 272 274 276 279 281 283 285 288 290 291 293 295 297 297 297 297 298
258 260 262 262 262 263 262 262 262 262 261 264 265 263 265 263 270 272 272 272 272 272 273 274 273 273 273 274 275 277 278 280 283 286 288 290 291 294 297 298 298 298 299 300
254 258 261 263 264 265 264 263 262 262 262 265 266 269 268 267 271 272 272 272 273 274 276 276 275 275 274 274 275 276 278 280 283 286 288 291 295 296 298 300 301 300 300 301
253 256 258 260 261 261 264 265 266 265 265 264 261 265 270 276 276 273 273 272 274 275 276 278 278 277 276 276 277 278 279 280 284 287 289 293 297 299 300 302 302 301 300 300
251 252 255 256 258 261 261 262 263 265 267 268 270 273 278 279 278 277 276 275 276 276 277 278 278 278 278 279 279 280 282 283 286 288 292 295 298 299 301 302 302 301 301 300
250 251 253 252 254 257 260 260 262 264 263 265 269 271 270 271 277 281 280 279 278 279 280 280 279 279 280 280 281 283 284 286 287 290 294 297 298 300 301 303 303 302 302 302
247 249 250 251 251 250 253 256 259 261 265 268 270 270 270 274 279 282 282 281 281 281 281 282 282 281 281 282 284 287 288 288 289 292 295 297 298 299 301 302 303 302 302 302
248 249 251 255 258 253 249 251 254 259 261 263 266 273 275 277 281 282 282 281 281 282 283 284 285 285 286 287 287 288 289 290 292 295 295 297 297 299 300 302 303 301 301 301
248 250 249 246 242 250 254 253 254 256 259 263 266 268 268 275 279 280 280 280 281 282 284 285 286 286 287 288 288 288 290 292 294 295 295 296 297 297 299 300 299 300 301 301
248 250 252 252 252 256 259 259 260 260 260 263 265 268 272 272 273 275 277 278 279 281 282 284 285 286 287 288 288 289 291 292 293 294 295 295 294 295 296 297 297 299 301 301
248 251 254 256 258 259 261 262 263 263 265 267 269 271 271 271 273 275 277 279 280 281 282 284 285 286 286 287 287 288 289 291 292 293 293 292 292 292 293 296 299 300 301 302
249 251 253 256 258 261 263 262 263 264 266 267 268 269 271 274 276 277 278 279 280 281 282 283 283 284 284 285 286 287 288 289 289 288 288 288 288 290 294 299 300 301 302 303
250 251 254 256 259 260 262 264 265 265 264 265 267 269 271 272 274 275 276 277 278 279 279 280 280 281 281 283 284 285 284 284 283 283 286 287 289 294 300 301 302 303 304 306
249 251 254 256 259 262 263 265 266 266 265 266 267 268 269 271 272 273 274 275 276 276 277 278 278 279 280 280 280 280 279 279 280 282 284 288 294 300 302 302 304 306 308 309
250 252 255 258 260 264 265 267 267 267 268 268 268 269 269 270 270 272 273 274 274 275 276 277 278 279 279 279 278 276 275 275 277 282 289 296 300 302 304 306 308 310 311 311
252 254 256 259 262 264 266 269 269 269 270 271 270 270 270 269 269 270 271 271 272 273 275 275 276 277 276 275 274 272 272 273 280 290 298 301 304 306 309 310 311 312 312 313
252 254 256 259 262 266 268 270 270 271 272 272 272 271 270 270 269 269 269 270 271 272 272 272 273 274 271 269 268 270 273 282 292 299 302 305 308 310 311 312 312 313 314 315
256 259 262 264 266 269 271 272 273 273 273 272 271 270 269 269 269 268 268 268 268 268 268 267 267 268 266 266 270 278 288 296 301 305 308 311 312 313 313 313 314 315 316 317
264 267 269 270 271 272 273 274 274 274 273 272 271 268 266 265 265 264 263 262 260 263 264 263 263 265 267 273 285 296 301 305 309 312 314 315 315 315 315 315 315 316 317 319
271 273 275 275 275 275 275 274 274 274 273 271 268 263 260 261 255 255 256 256 258 260 261 261 264 274 286 300 304 307 311 315 317 318 318 318 317 317 317 317 319 319 320 321
276 277 279 278 275 274 272 271 270 270 267 261 256 250 251 249 244 245 249 249 251 254 260 271 288 300 307 312 316 319 321 322 322 321 321 320 320 319 320 321 322 323 324 325
Height
5833 5836 5839 5842 5844 5845 5846 5850 5853 5855 5853 5856 5857 5857 5858 5859 5861 5862 5863 5863 5863 5863 5862 5862 5861 5860 5859 5858 5856 5855 5853 5851 5848 5846 5845 5843 5841 5839 5837 5834 5832 5829 5827 5824
5828 5830 5833 5833 5835 5838 5840 5843 5847 5849 5848 5849 5848 5849 5851 5852 5854 5855 5856 5856 5857 5856 5856 5856 5855 5854 5853 5852 5850 5848 5846 5844 5841 5839 5837 5835 5833 5830 5829 5826 5824 5821 5818 5815
5821 5825 5826 5827 5829 5831 5833 5836 5840 5842 5841 5841 5841 5843 5844 5844 5846 5847 5848 5849 5849 5849 5850 5849 5848 5847 5846 5845 5843 5841 5839 5836 5834 5831 5829 5827 5825 5822 5820 5817 5815 5812 5809 5805
5815 5818 5820 5821 5823 5825 5827 5829 5832 5833 5834 5835 5833 5835 5838 5834 5838 5840 5841 5841 5841 5841 5842 5842 5841 5840 5839 5837 5836 5833 5831 5828 5826 5824 5821 5818 5816 5813 5811 5808 5805 5802 5799 5795
5811 5813 5813 5815 5817 5819 5820 5822 5824 5825 5826 5827 5826 5827 5832 5826 5829 5832 5833 5833 5833 5833 5833 5834 5834 5833 5831 5830 5828 5825 5823 5820 5818 5815 5813 5810 5807 5804 5801 5798 5795 5791 5788 5783
5805 5806 5808 5810 5811 5812 5813 5816 5817 5817 5818 5819 5820 5820 5823 5821 5820 5824 5824 5824 5825 5825 5825 5825 5825 5825 5823 5821 5819 5817 5814 5812 5809 5807 5804 5801 5798 5795 5791 5788 5784 5779 5775 5771
5799 5800 5801 5803 5805 5806 5808 5810 5810 5811 5811 5813 5814 5812 5815 5814 5812 5815 5816 5816 5816 5817 5817 5817 5816 5816 5814 5812 5810 5808 5805 5803 5800 5798 5795 5792 5789 5785 5781 5777 5772 5767 5762 5757
5792 5794 5795 5797 5798 5800 5800 5803 5805 5806 5808 5809 5807 5804 5807 5804 5805 5807 5808 5808 5808 5808 5808 5808 5807 5806 5805 5803 5801 5799 5796 5794 5791 5788 5785 5782 5778 5775 5770 5765 5760 5755 5749 5744
5785 5788 5789 5790 5791 5793 5794 5795 5797 5797 5797 5798 5799 5800 5799 5797 5798 5799 5800 5800 5801 5801 5800 5800 5798 5797 5796 5794 5792 5790 5787 5785 5782 5779 5776 5772 5768 5763 5758 5753 5748 5742 5737 5731
5777 5781 5783 5784 5785 5786 5788 5789 5789 5789 5789 5790 5792 5794 5795 5792 5792 5792 5792 5793 5793 5792 5792 5791 5790 5788 5787 5785 5783 5780 5778 5775 5772 5769 5765 5761 5757 5752 5747 5741 5736 5730 5724 5718
5769 5773 5776 5778 5779 5781 5781 5782 5782 5783 5784 5785 5786 5791 5788 5785 5785 5785 5785 5785 5785 5785 5784 5783 5782 5780 5778 5776 5774 5771 5768 5765 5762 5759 5755 5750 5746 5741 5735 5729 5724 5718 5712 5705
5760 5764 5767 5770 5772 5773 5774 5775 5776 5776 5777 5777 5777 5782 5780 5777 5777 5777 5777 5777 5776 5776 5776 5774 5773 5771 5769 5767 5764 5761 5758 5755 5751 5748 5744 5739 5734 5729 5723 5717 5711 5705 5699 5692
5751 5755 5760 5763 5766 5765 5765 5766 5768 5769 5769 5769 5770 5776 5770 5769 5769 5769 5769 5768 5768 5767 5767 5765 5763 5761 5759 5757 5754 5751 5748 5744 5741 5737 5732 5727 5722 5716 5711 5705 5699 5693 5687 5680
5741 5745 5750 5756 5756 5752 5755 5758 5759 5761 5762 5762 5763 5765 5763 5760 5760 5760 5760 5760 5759 5758 5757 5755 5754 5751 5749 5746 5743 5740 5737 5733 5729 5725 5720 5715 5709 5704 5698 5693 5687 5681 5675 5668
5732 5735 5737 5740 5743 5745 5746 5748 5749 5750 5751 5752 5753 5753 5753 5751 5750 5751 5750 5750 5749 5748 5747 5745 5743 5741 5738 5736 5733 5729 5725 5721 5717 5713 5707 5702 5697 5691 5686 5680 5674 5668 5662 5656
5722 5725 5727 5730 5732 5734 5735 5737 5739 5740 5741 5740 5741 5741 5740 5738 5739 5740 5739 5739 5738 5737 5735 5734 5732 5729 5727 5724 5721 5717 5713 5709 5705 5700 5695 5689 5684 5679 5673 5668 5662 5656 5650 5643
5712 5715 5718 5720 5721 5722 5724 5726 5727 5728 5729 5729 5728 5728 5726 5727 5728 5727 5727 5727 5726 5725 5723 5721 5719 5717 5715 5712 5709 5705 5701 5697 5693 5688 5683 5678 5672 5667 5661 5656 5651 5644 5638 5631
5703 5705 5707 5709 5711 5712 5714 5713 5716 5717 5717 5716 5716 5715 5715 5715 5715 5715 5714 5714 5713 5712 5710 5709 5707 5705 5703 5700 5697 5694 5690 5686 5682 5677 5672 5667 5661 5655 5650 5645 5639 5632 5626 5619
5693 5696 5698 5700 5700 5701 5701 5702 5704 5705 5704 5705 5704 5704 5703 5703 5703 5702 5701 5700 5700 5699 5698 5697 5695 5694 5692 5689 5686 5684 5680 5676 5672 5667 5661 5656 5650 5644 5639 5634 5627 5621 5614 5606
5685 5687 5689 5690 5691 5692 5691 5693 5692 5694 5693 5693 5692 5692 5691 5691 5691 5690 5688 5688 5687 5686 5686 5685 5684 5683 5681 5679 5676 5673 5670 5666 5661 5656 5650 5645 5640 5635 5629 5622 5616 5609 5602 5595
5677 5679 5680 5681 5681 5681 5681 5682 5682 5684 5683 5681 5680 5680 5680 5679 5679 5678 5677 5676 5676 5676 5675 5675 5674 5673 5672 5669 5667 5664 5660 5655 5650 5645 5641 5636 5630 5624 5618 5611 5605 5598 5591 5584
5670 5671 5672 5672 5673 5673 5672 5672 5672 5672 5671 5670 5669 5669 5669 5668 5668 5667 5667 5666 5666 5666 5666 5666 5665 5664 5662 5660 5657 5654 5649 5645 5641 5637 5632 5627 5620 5614 5608 5601 5594 5588 5581 5574
5662 5663 5663 5665 5666 5663 5662 5661 5661 5661 5661 5661 5660 5659 5659 5659 5658 5658 5658 5659 5658 5658 5658 5657 5657 5656 5654 5652 5649 5646 5642 5638 5634 5629 5624 5617 5611 5605 5598 5591 5585 5578 5572 5565
5655 5655 5655 5655 5655 5654 5653 5653 5652 5652 5652 5652 5651 5651 5651 5651 5651 5651 5652 5652 5652 5652 5652 5651 5650 5649 5647 5644 5642 5639 5636 5632 5626 5621 5615 5609 5602 5595 5589 5582 5575 5569 5563 5557
5648 5648 5648 5647 5647 5646 5645 5645 5645 5644 5644 5644 5644 5644 5644 5645 5645 5646 5646 5647 5647 5647 5647 5646 5645 5644 5642 5640 5637 5634 5629 5624 5619 5613 5607 5600 5593 5587 5580 5573 5567 5560 5555 5551
5642 5643 5642 5641 5640 5639 5639 5638 5638 5638 5638 5638 5639 5640 5640 5641 5641 5642 5643 5644 5644 5644 5643 5643 5642 5641 5638 5635 5632 5628 5624 5618 5613 5606 5600 5593 5586 5578 5571 5565 5560 5554 5550 5546